Starlink 33592

operational
NORAD ID: 62765 Int'l Des: 2025-015 Owner: SPXS Country: US Constellation: starlink
LEOCIRCULAR

关于 Starlink 33592

正在加载描述...

实时位置

正在加载3D地球...

即将过境

高度历史

Altitude vs Time

uPlot chart will show altitude changes over time

两行轨道根数

1 62765U 25015H 26036.51555348 .00052423 00000-0 17676-2 0 9997
2 62765 53.1597 112.0064 0000813 106.8941 253.2148 15.30237287 59426
Epoch: Feb 5, 2026 • Age: 6 hours

当前状态

高度 477.0 km
速度 7.63 km/s
星下点 -7.10°S, 108.09°W
发射日期 Jan 21, 2025
运行时间 1 years
类型 internet

技术详情

分类 Payload
质量 575.00 kg
干质量 530.00 kg
总质量 575.00 kg
长度 0.30 m
直径 4.10 m
跨度 29.00 m
形状 Box + pan
制造商 SPXS
平台类型 Starlink V2MO
阶段状态 In Orbit
所有者/国家 SPXS/US

大型星座

Loading constellations...